Minneapolis Flying Cloud, MN

5:29 AM CDT on May 25, 2017 (GMT -0500)
Flying Cloud

Weather History for KFCM - June, 2013

Change the Weather History Date:

Saturday, June 15, 2013

  Actual Average Record
Temperature  
Mean Temperature 70 °F -  
Max Temperature 75 °F 74 °F 90 °F (2007)
Min Temperature 64 °F 56 °F 50 °F (1999)
Cooling Degree Days 4    
Growing Degree Days 20 (Base 50)    
Moisture  
Dew Point 63 °F    
Average Humidity 80    
Maximum Humidity 90    
Minimum Humidity 60    
Precipitation  
Precipitation 0.05 in - - ()
Sea Level Pressure  
Sea Level Pressure 29.87 in    
Wind  
Wind Speed 7 mph (SW)    
Max Wind Speed 16 mph    
Max Gust Speed 26 mph    
Visibility 9 miles    
Events Rain , Thunderstorm    
Averages and records for this station are not official NWS values.
T = Trace of Precipitation, MM = Missing Value Source: NWS Daily Summary

Daily Weather History Graph

Daily Weather History Graph

Search for Another Location

Airport or City:

Trip Planner

Search our weather history database for the weather conditions in past years. The results will help you decide how hot, cold, wet, or windy it might be!

Date:

Astronomy

Jun. 15, 2013 Rise Set
Actual Time 5:27 AM CDT 9:01 PM CDT
Civil Twilight 4:49 AM CDT 9:39 PM CDT
Nautical Twilight 4:00 AM CDT 10:28 PM CDT
Astronomical Twilight 2:56 AM CDT 11:33 PM CDT
Moon 12:18 PM CDT (6/15) 12:23 AM CDT (6/15)
Length of Visible Light 16h 49m
Length of Day
15h 34m
Waxing Crescent, 40% of the Moon is Illuminated
Jun 15
Waxing Crescent
Jun 16
First Quarter
Jun 23
Full
Jun 29
Last Quarter
Jul 8
New

Hourly Weather History & Observations

Time (CDT) Temp. Dew Point Humidity Pressure Visibility Wind Dir Wind Speed Gust Speed Precip Events Conditions
12:53 AM 68.0 °F 62.1 °F 81% 29.88 in 10.0 mi South 13.8 mph - 0.00 in   Overcast
1:53 AM 66.0 °F 62.1 °F 87% 29.88 in 10.0 mi SE 8.1 mph - 0.01 in   Overcast
2:53 AM 66.0 °F 62.1 °F 87% 29.88 in 10.0 mi SSE 6.9 mph - N/A   Overcast
3:53 AM 64.9 °F 62.1 °F 90% 29.86 in 10.0 mi SSE 5.8 mph - N/A   Mostly Cloudy
4:53 AM 64.0 °F 61.0 °F 90% 29.85 in 9.0 mi SSE 4.6 mph - N/A   Clear
5:53 AM 64.9 °F 62.1 °F 90% 29.86 in 6.0 mi Calm Calm - N/A   Scattered Clouds
6:53 AM 66.0 °F 63.0 °F 90% 29.86 in 7.0 mi SE 5.8 mph - N/A   Scattered Clouds
7:53 AM 69.1 °F 64.0 °F 84% 29.86 in 10.0 mi Calm Calm - N/A   Partly Cloudy
8:53 AM 73.0 °F 64.9 °F 76% 29.87 in 10.0 mi WNW 3.5 mph - N/A   Mostly Cloudy
9:53 AM 73.0 °F 66.0 °F 79% 29.87 in 10.0 mi SE 4.6 mph - N/A   Overcast
10:53 AM 73.9 °F 66.0 °F 76% 29.87 in 10.0 mi South 4.6 mph - N/A   Overcast
11:30 AM 75.2 °F 66.2 °F 73% 29.86 in 10.0 mi Calm Calm - N/A   Mostly Cloudy
11:53 AM 75.0 °F 66.9 °F 76% 29.88 in 10.0 mi South 6.9 mph - N/A   Mostly Cloudy
12:53 PM 75.0 °F 66.9 °F 76% 29.88 in 10.0 mi SSW 6.9 mph - N/A   Overcast
1:53 PM 73.0 °F 68.0 °F 84% 29.86 in 4.0 mi SW 4.6 mph - 0.01 in Rain Light Rain
2:42 PM 73.4 °F 66.2 °F 78% 29.87 in 8.0 mi WSW 6.9 mph - 0.00 in Rain , Thunderstorm Light Rain
2:50 PM 69.8 °F 62.6 °F 78% 29.87 in 10.0 mi WSW 16.1 mph 26.5 mph 0.00 in Rain , Thunderstorm Light Rain
2:53 PM 68.0 °F 62.1 °F 81% 29.86 in 10.0 mi WSW 12.7 mph 26.5 mph 0.00 in Rain , Thunderstorm Light Thunderstorms and Rain
3:11 PM 66.2 °F 60.8 °F 83% 29.88 in 10.0 mi WSW 8.1 mph - 0.00 in Rain , Thunderstorm Light Rain
3:53 PM 66.9 °F 62.1 °F 84% 29.89 in 10.0 mi NW 8.1 mph - 0.03 in Rain , Thunderstorm Light Rain
4:09 PM 66.2 °F 62.6 °F 88% 29.88 in 10.0 mi NNW 6.9 mph - 0.00 in Rain Light Rain
4:53 PM 72.0 °F 64.0 °F 76% 29.87 in 10.0 mi North 9.2 mph - 0.00 in   Partly Cloudy
5:53 PM 75.0 °F 61.0 °F 62% 29.84 in 10.0 mi NW 9.2 mph - N/A   Clear
6:53 PM 75.9 °F 61.0 °F 60% 29.84 in 10.0 mi NW 3.5 mph - N/A   Clear
7:53 PM 73.9 °F 62.1 °F 66% 29.84 in 10.0 mi Calm Calm - N/A   Clear
8:53 PM 72.0 °F 62.1 °F 71% 29.84 in 10.0 mi Calm Calm - N/A   Clear
9:53 PM 70.0 °F 62.1 °F 76% 29.86 in 10.0 mi WSW 3.5 mph - N/A   Clear
10:53 PM 68.0 °F 62.1 °F 81% 29.88 in 10.0 mi Calm Calm - N/A   Clear
11:53 PM 64.9 °F 61.0 °F 87% 29.88 in 10.0 mi Calm Calm - N/A   Clear